Miscellaneous Local Product
Issued by NWS Hastings, NE

Home | Current Version | Previous Version | Graphics & Text | Print | Product List | Glossary On
Versions: 1 2 3 4 5 6 7 8 9 10 11 12 13 14 15 16 17 18 19 20 21 22 23 24 25 26 27 28 29 30 31 32 33 34 35 36 37 38 39 40 41 42 43 44 45 46 47 48 49 50
000
AXUS43 KGID 221202
MISGRI

GID CWA HOURLY WEATHER ROUNDUP
NATIONAL WEATHER SERVICE HASTINGS NE
700 AM CDT WED MAR 22 2017

NOTE: "FAIR" INDICATES FEW OR NO CLOUDS BELOW 12,000 FEET WITH NO
SIGNIFICANT WEATHER AND/OR OBSTRUCTIONS TO VISIBILITY.

...SOUTH CENTRAL NEBRASKA...

CITY           SKY/WX    TMP DP  RH WIND       PRES   REMARKS
GRAND ISLAND   CLOUDY    31  26  82 E6        30.36R WCI  25
HASTINGS       CLOUDY    34  24  67 E9        30.35R WCI  27
KEARNEY        CLOUDY    36  21  55 SE12      30.34S WCI  27
ORD            CLOUDY    30  23  75 SE3       30.33R
YORK           CLOUDY    32  23  69 E10       30.35F WCI  24
AURORA         CLOUDY    31  24  75 E6        30.35S WCI  25
LEXINGTON      CLOUDY    34  25  67 SE12      30.29F WCI  26
HOLDREGE       CLOUDY    34  23  63 E16       30.29F WCI  24
HEBRON         PTCLDY    33  25  70 E7        30.35R WCI  27

...NEBRASKA PANHANDLE...

CITY           SKY/WX    TMP DP  RH WIND       PRES   REMARKS
CHADRON        CLOUDY    39  30  70 S25G35    29.99F WCI  28
ALLIANCE       CLOUDY    34  30  85 S23G33    30.08F WCI  22
SCOTTSBLUFF    CLOUDY    35  29  78 SE16      30.06F WCI  25
SIDNEY         CLOUDY    33  30  88 S20       30.10F WCI  21

...WESTERN AND NORTH CENTRAL NEBRASKA...

CITY           SKY/WX    TMP DP  RH WIND       PRES   REMARKS
VALENTINE      PTCLDY    32  26  78 S15       30.20F WCI  22
AINSWORTH      PTCLDY    31  29  94 SE17      30.22F WCI  19
ONEILL         CLOUDY    31  27  84 SE14      30.32S WCI  21
BROKEN BOW     CLOUDY    30  27  88 SE8       30.29S WCI  22
IMPERIAL       CLOUDY    34  24  67 SE16      30.21S WCI  24
NORTH PLATTE   CLOUDY    34  25  69 SE12      30.24S WCI  25
MCCOOK         CLOUDY    35  25  66 SE12      30.26F WCI  27

...EASTERN NEBRASKA...

CITY           SKY/WX    TMP DP  RH WIND       PRES   REMARKS
NORFOLK        MIX PCPN  29  21  72 E15       30.37F WCI  18
SO SIOUX CITY  CLOUDY    30  18  60 SE9       30.44S WCI  22
TEKAMAH        CLOUDY    32  19  58 SE7       30.46R WCI  26
COLUMBUS       CLOUDY    32  19  59 E16       30.38F WCI  21
ALBION         CLOUDY    32  23  70 E13       30.35F WCI  22
OMAHA EPPLEY   CLOUDY    34  16  47 E8        30.45R WCI  27
OFFUTT AFB     LGTSLEET  32  16  51 E12       30.43R WCI  23
MILLARD        CLOUDY    35  19  51 E5        30.44R WCI  31
LINCOLN        CLOUDY    35  22  58 E9        30.42R WCI  28
NEBRASKA CITY  CLOUDY    34  16  46 E9        30.40F WCI  27
BEATRICE       CLOUDY    36  24  63 E9        30.37S WCI  29
FALLS CITY     PTCLDY    35  21  56 E8        30.39S WCI  29

...NORTHERN KANSAS...

CITY           SKY/WX    TMP DP  RH WIND       PRES   REMARKS
GOODLAND       CLOUDY    37  32  82 SE17      30.20S WCI  27
HILL CITY      PTCLDY    34  25  69 E7        30.28S WCI  28
NORTON         CLOUDY    36  19  51 E8        30.27S WCI  29
PHILLIPSBURG   CLOUDY    37  25  60 E7        30.30F WCI  32
HAYS             N/A     40  24  53 E15       30.27F WCI  32
RUSSELL        CLOUDY    40  25  55 NE10      30.28S WCI  33
CONCORDIA      PTCLDY    37  24  59 E12       30.31R WCI  29
SALINA         CLOUDY    44  25  47 E10       30.29S
TOPEKA         MOCLDY    39  25  57 E8        30.37R WCI  33



USA.gov is the U.S. government's official web portal to all federal, state and local government web resources and services.